| time (UTC) | temp F | wind direction | speed knots | gust knots | rain 1hr in | rain 24hr in | rain mn in | humidity % | barometer mb |
| 20260507204501 | 54 | 193 | 1.7 | 4.3 | 0.00 | 0.01 | 0.01 | 75 | 1011.8 |
| 20260507204008 | 54 | 187 | 2.6 | 5.2 | 0.00 | 0.01 | 0.01 | 74 | 1011.8 |
| 20260507203004 | 55 | 143 | 4.3 | 7.8 | 0.00 | 0.01 | 0.01 | 74 | 1011.8 |
| 20260507202455 | 55 | 86 | 2.6 | 3.5 | 0.00 | 0.01 | 0.01 | 71 | 1011.6 |
| 20260507201445 | 55 | 355 | 0.9 | 2.6 | 0.00 | 0.01 | 0.01 | 70 | 1011.6 |
| 20260507200952 | 56 | 355 | 0.9 | 2.6 | 0.00 | 0.01 | 0.01 | 69 | 1011.6 |
| 20260507200430 | 56 | 283 | 0.0 | 1.7 | 0.00 | 0.01 | 0.01 | 68 | 1011.7 |
| 20260507195432 | 56 | 282 | 2.6 | 5.2 | 0.00 | 0.01 | 0.01 | 67 | 1011.6 |
| 20260507194928 | 56 | 250 | 3.5 | 6.1 | 0.00 | 0.01 | 0.01 | 67 | 1011.6 |
| 20260507194431 | 57 | 295 | 3.5 | 6.1 | 0.00 | 0.01 | 0.01 | 66 | 1011.6 |
| 20260507193929 | 57 | 258 | 3.5 | 7.0 | 0.00 | 0.01 | 0.01 | 66 | 1011.6 |
| 20260507193429 | 57 | 284 | 3.5 | 7.8 | 0.00 | 0.01 | 0.01 | 65 | 1011.6 |
| 20260507192932 | 57 | 280 | 4.3 | 7.8 | 0.00 | 0.01 | 0.01 | 65 | 1011.6 |
| 20260507191444 | 57 | 247 | 2.6 | 5.2 | 0.00 | 0.01 | 0.01 | 64 | 1011.4 |
| 20260507190447 | 58 | 257 | 1.7 | 3.5 | 0.00 | 0.01 | 0.01 | 63 | 1011.3 |
| 20260507185930 | 58 | 203 | 0.9 | 2.6 | 0.00 | 0.01 | 0.01 | 63 | 1011.3 |
| 20260507185431 | 58 | 213 | 0.9 | 2.6 | 0.00 | 0.01 | 0.01 | 62 | 1011.3 |
| 20260507184431 | 58 | 277 | 1.7 | 4.3 | 0.00 | 0.01 | 0.01 | 60 | 1011.3 |
| 20260507183932 | 59 | 315 | 1.7 | 4.3 | 0.00 | 0.01 | 0.01 | 60 | 1011.3 |
| 20260507183443 | 59 | 327 | 1.7 | 4.3 | 0.00 | 0.01 | 0.01 | 59 | 1011.4 |
| 20260507182931 | 59 | 306 | 1.7 | 4.3 | 0.00 | 0.01 | 0.01 | 59 | 1011.6 |
| 20260507182432 | 59 | 355 | 2.6 | 4.3 | 0.00 | 0.01 | 0.01 | 58 | 1011.6 |
| 20260507181929 | 60 | 337 | 2.6 | 5.2 | 0.00 | 0.01 | 0.01 | 58 | 1011.6 |
| 20260507181428 | 60 | 334 | 2.6 | 5.2 | 0.00 | 0.01 | 0.01 | 57 | 1011.4 |
| 20260507180929 | 60 | 359 | 1.7 | 5.2 | 0.00 | 0.01 | 0.01 | 57 | 1011.4 |
| 20260507175928 | 60 | 332 | 1.7 | 3.5 | 0.00 | 0.01 | 0.01 | 56 | 1011.6 |
| 20260507175430 | 60 | 325 | 2.6 | 5.2 | 0.00 | 0.01 | 0.01 | 55 | 1011.6 |
| 20260507174930 | 60 | 355 | 4.3 | 8.7 | 0.00 | 0.01 | 0.01 | 55 | 1011.6 |
| 20260507174430 | 60 | 2 | 5.2 | 8.7 | 0.00 | 0.01 | 0.01 | 54 | 1011.6 |
| 20260507173929 | 60 | 264 | 4.3 | 7.0 | 0.00 | 0.01 | 0.01 | 53 | 1011.4 |
| 20260507173429 | 60 | 257 | 4.3 | 7.0 | 0.00 | 0.01 | 0.01 | 53 | 1011.4 |
| 20260507172930 | 60 | 280 | 3.5 | 6.1 | 0.00 | 0.01 | 0.01 | 52 | 1011.3 |
| 20260507172428 | 60 | 265 | 3.5 | 6.1 | 0.00 | 0.01 | 0.01 | 53 | 1011.3 |
| 20260507171928 | 60 | 222 | 3.5 | 7.8 | 0.00 | 0.01 | 0.01 | 52 | 1011.2 |
| 20260507171431 | 60 | 282 | 4.3 | 7.8 | 0.00 | 0.01 | 0.01 | 53 | 1011.2 |
| 20260507170925 | 60 | 282 | 4.3 | 6.1 | 0.00 | 0.01 | 0.01 | 54 | 1011.2 |
| 20260507170434 | 60 | 278 | 3.5 | 6.1 | 0.00 | 0.01 | 0.01 | 54 | 1011.2 |
| 20260507165912 | 60 | 267 | 3.5 | 6.1 | 0.00 | 0.01 | 0.01 | 56 | 1011.1 |
| 20260507165403 | 60 | 247 | 4.3 | 7.0 | 0.00 | 0.01 | 0.01 | 58 | 1011.1 |
| 20260507164919 | 60 | 245 | 5.2 | 8.7 | 0.00 | 0.01 | 0.01 | 58 | 1011.1 |
| 20260507164402 | 60 | 251 | 5.2 | 8.7 | 0.00 | 0.01 | 0.01 | 57 | 1011.2 |
| 20260507163904 | 60 | 231 | 4.3 | 7.0 | 0.00 | 0.01 | 0.01 | 56 | 1011.3 |
| 20260507163402 | 60 | 247 | 3.5 | 6.1 | 0.00 | 0.01 | 0.01 | 56 | 1011.3 |
| 20260507162902 | 60 | 278 | 4.3 | 6.1 | 0.00 | 0.01 | 0.01 | 56 | 1011.3 |
| 20260507161920 | 60 | 258 | 4.3 | 7.8 | 0.00 | 0.01 | 0.01 | 56 | 1011.2 |
| 20260507161402 | 60 | 249 | 4.3 | 7.8 | 0.00 | 0.01 | 0.01 | 57 | 1011.2 |
| 20260507155903 | 60 | 236 | 4.3 | 7.0 | 0.00 | 0.01 | 0.01 | 56 | 1011.3 |
| 20260507155417 | 60 | 274 | 3.5 | 6.1 | 0.00 | 0.01 | 0.01 | 56 | 1011.3 |
| 20260507154902 | 60 | 271 | 3.5 | 6.1 | 0.00 | 0.01 | 0.01 | 56 | 1011.3 |
| 20260507154402 | 60 | 271 | 3.5 | 7.8 | 0.00 | 0.01 | 0.01 | 57 | 1011.3 |
| 20260507153903 | 60 | 258 | 4.3 | 8.7 | 0.00 | 0.01 | 0.01 | 56 | 1011.3 |
| 20260507152902 | 61 | 222 | 5.2 | 7.8 | 0.00 | 0.01 | 0.01 | 56 | 1011.4 |
| 20260507152402 | 61 | 271 | 5.2 | 8.7 | 0.00 | 0.01 | 0.01 | 55 | 1011.4 |
| 20260507151904 | 61 | 257 | 5.2 | 8.7 | 0.00 | 0.01 | 0.01 | 52 | 1011.4 |
| 20260507151400 | 61 | 236 | 5.2 | 8.7 | 0.00 | 0.01 | 0.01 | 51 | 1011.3 |
| 20260507150357 | 60 | 211 | 5.2 | 7.8 | 0.00 | 0.01 | 0.01 | 59 | 1011.4 |
| 20260507145857 | 60 | 228 | 5.2 | 8.7 | 0.00 | 0.01 | 0.01 | 58 | 1011.4 |
| 20260507145355 | 60 | 210 | 5.2 | 8.7 | 0.00 | 0.01 | 0.01 | 59 | 1011.6 |
| 20260507144911 | 60 | 217 | 5.2 | 9.6 | 0.00 | 0.01 | 0.01 | 59 | 1011.6 |
| 20260507144355 | 60 | 226 | 5.2 | 9.6 | 0.00 | 0.01 | 0.01 | 58 | 1011.4 |
| 20260507143854 | 60 | 257 | 6.1 | 8.7 | 0.00 | 0.01 | 0.01 | 59 | 1011.4 |
| 20260507143353 | 60 | 201 | 6.1 | 10.4 | 0.00 | 0.01 | 0.01 | 57 | 1011.6 |
| 20260507142351 | 60 | 217 | 4.3 | 9.6 | 0.00 | 0.01 | 0.01 | 57 | 1011.6 |
| 20260507141343 | 60 | 214 | 4.3 | 7.0 | 0.00 | 0.01 | 0.01 | 59 | 1011.6 |
| 20260507140843 | 60 | 233 | 4.3 | 7.0 | 0.00 | 0.01 | 0.01 | 55 | 1011.7 |
| 20260507140345 | 60 | 272 | 4.3 | 7.0 | 0.00 | 0.01 | 0.01 | 53 | 1011.7 |
| 20260507135841 | 60 | 255 | 4.3 | 7.0 | 0.00 | 0.01 | 0.01 | 52 | 1011.8 |
| 20260507134841 | 61 | 234 | 4.3 | 8.7 | 0.00 | 0.01 | 0.01 | 57 | 1011.8 |
| 20260507134332 | 61 | 217 | 4.3 | 8.7 | 0.00 | 0.01 | 0.01 | 54 | 1012.0 |
| 20260507133830 | 61 | 278 | 3.5 | 6.1 | 0.00 | 0.01 | 0.01 | 54 | 1011.8 |
| 20260507132829 | 60 | 289 | 4.3 | 7.8 | 0.00 | 0.01 | 0.01 | 61 | 1011.8 |
| 20260507132331 | 59 | 307 | 5.2 | 7.8 | 0.00 | 0.01 | 0.01 | 58 | 1011.9 |
| 20260507131829 | 59 | 265 | 4.3 | 7.0 | 0.00 | 0.01 | 0.01 | 55 | 1012.0 |
| 20260507131328 | 59 | 251 | 4.3 | 7.0 | 0.00 | 0.01 | 0.01 | 55 | 1012.0 |
| 20260507130827 | 59 | 307 | 4.3 | 7.0 | 0.00 | 0.01 | 0.01 | 53 | 1012.1 |
| 20260507130328 | 59 | 263 | 3.5 | 6.1 | 0.00 | 0.01 | 0.01 | 53 | 1012.1 |
| 20260507125821 | 59 | 249 | 3.5 | 6.1 | 0.00 | 0.01 | 0.01 | 54 | 1012.2 |
| 20260507124821 | 59 | 350 | 4.3 | 7.8 | 0.00 | 0.01 | 0.01 | 57 | 1012.2 |
| 20260507124320 | 59 | 267 | 5.2 | 7.8 | 0.00 | 0.01 | 0.01 | 58 | 1012.1 |
| 20260507123818 | 59 | 260 | 4.3 | 7.8 | 0.00 | 0.01 | 0.01 | 59 | 1012.1 |
| 20260507123318 | 59 | 301 | 5.2 | 7.8 | 0.00 | 0.01 | 0.01 | 57 | 1012.2 |
| 20260507122318 | 59 | 284 | 5.2 | 9.6 | 0.00 | 0.01 | 0.01 | 56 | 1012.1 |
| 20260507121816 | 59 | 295 | 5.2 | 9.6 | 0.00 | 0.01 | 0.01 | 55 | 1012.1 |
| 20260507121317 | 58 | 271 | 4.3 | 8.7 | 0.00 | 0.01 | 0.01 | 57 | 1012.1 |
| 20260507120812 | 58 | 329 | 5.2 | 9.6 | 0.00 | 0.01 | 0.01 | 58 | 1012.1 |
| 20260507120312 | 58 | 314 | 5.2 | 9.6 | 0.00 | 0.01 | 0.01 | 59 | 1012.1 |
| 20260507115810 | 58 | 284 | 5.2 | 9.6 | 0.00 | 0.01 | 0.01 | 61 | 1012.0 |
| 20260507115307 | 58 | 271 | 4.3 | 9.6 | 0.00 | 0.01 | 0.01 | 60 | 1012.1 |
| 20260507114307 | 58 | 261 | 2.6 | 7.8 | 0.00 | 0.01 | 0.01 | 60 | 1012.0 |
| 20260507113802 | 59 | 337 | 2.6 | 6.1 | 0.00 | 0.01 | 0.01 | 59 | 1012.1 |
| 20260507113301 | 59 | 309 | 3.5 | 6.1 | 0.00 | 0.01 | 0.01 | 59 | 1012.1 |
| 20260507112306 | 58 | 221 | 4.3 | 7.8 | 0.00 | 0.01 | 0.01 | 55 | 1012.1 |
| 20260507111801 | 58 | 260 | 4.3 | 8.7 | 0.00 | 0.01 | 0.01 | 59 | 1012.1 |
| 20260507111300 | 58 | 288 | 4.3 | 8.7 | 0.00 | 0.01 | 0.01 | 60 | 1012.1 |
| 20260507110802 | 58 | 309 | 4.3 | 7.8 | 0.00 | 0.01 | 0.01 | 60 | 1012.1 |
| 20260507110304 | 58 | 308 | 3.5 | 6.1 | 0.00 | 0.02 | 0.01 | 59 | 1012.1 |
| 20260507105803 | 58 | 13 | 3.5 | 7.0 | 0.00 | 0.02 | 0.01 | 58 | 1012.0 |
| 20260507105301 | 58 | 288 | 4.3 | 7.0 | 0.00 | 0.02 | 0.01 | 59 | 1012.1 |
| 20260507104800 | 58 | 291 | 3.5 | 7.0 | 0.00 | 0.02 | 0.01 | 62 | 1012.1 |
| 20260507104302 | 58 | 5 | 2.6 | 5.2 | 0.00 | 0.02 | 0.01 | 61 | 1012.0 |
| 20260507103816 | 58 | 274 | 3.5 | 5.2 | 0.00 | 0.02 | 0.01 | 61 | 1012.1 |
| 20260507103301 | 57 | 337 | 3.5 | 5.2 | 0.00 | 0.02 | 0.01 | 64 | 1012.0 |
| 20260507102800 | 57 | 296 | 3.5 | 6.1 | 0.00 | 0.03 | 0.01 | 64 | 1012.1 |
| 20260507102318 | 57 | 234 | 3.5 | 6.1 | 0.00 | 0.04 | 0.01 | 64 | 1012.0 |
| 20260507101803 | 57 | 221 | 3.5 | 6.1 | 0.00 | 0.05 | 0.01 | 64 | 1012.1 |
| 20260507100802 | 57 | 310 | 4.3 | 7.8 | 0.00 | 0.06 | 0.01 | 64 | 1012.3 |
| 20260507100304 | 57 | 289 | 3.5 | 7.8 | 0.00 | 0.06 | 0.01 | 64 | 1012.3 |
| 20260507095305 | 56 | 26 | 3.5 | 7.0 | 0.00 | 0.10 | 0.01 | 66 | 1012.3 |
| 20260507094303 | 56 | 275 | 4.3 | 11.3 | 0.00 | 0.10 | 0.01 | 66 | 1012.3 |
| 20260507093804 | 56 | 316 | 4.3 | 11.3 | 0.00 | 0.10 | 0.01 | 68 | 1012.3 |
| 20260507093303 | 55 | 34 | 4.3 | 8.7 | 0.00 | 0.10 | 0.01 | 68 | 1012.2 |
| 20260507092801 | 55 | 271 | 4.3 | 8.7 | 0.00 | 0.10 | 0.01 | 68 | 1012.2 |
| 20260507092306 | 55 | 308 | 4.3 | 7.0 | 0.00 | 0.10 | 0.01 | 68 | 1012.2 |
| 20260507091803 | 55 | 355 | 6.1 | 9.6 | 0.00 | 0.10 | 0.01 | 69 | 1012.2 |
| 20260507091303 | 55 | 297 | 7.0 | 9.6 | 0.00 | 0.10 | 0.01 | 69 | 1012.2 |
| 20260507090801 | 55 | 318 | 5.2 | 13.0 | 0.00 | 0.10 | 0.01 | 69 | 1012.2 |
| 20260507084801 | 55 | 9 | 6.1 | 9.6 | 0.00 | 0.10 | 0.01 | 68 | 1012.1 |
| 20260507084301 | 55 | 355 | 6.1 | 9.6 | 0.00 | 0.10 | 0.01 | 69 | 1012.0 |
| 20260507083801 | 55 | 308 | 4.3 | 9.6 | 0.00 | 0.10 | 0.01 | 71 | 1011.9 |
| 20260507083302 | 54 | 355 | 4.3 | 8.7 | 0.00 | 0.10 | 0.01 | 71 | 1011.8 |
| 20260507082801 | 54 | 337 | 3.5 | 8.7 | 0.00 | 0.10 | 0.01 | 75 | 1011.7 |
| 20260507082300 | 53 | 325 | 3.5 | 7.0 | 0.00 | 0.10 | 0.01 | 76 | 1011.7 |
| 20260507081802 | 53 | 272 | 3.5 | 7.0 | 0.00 | 0.10 | 0.01 | 79 | 1011.7 |
| 20260507081302 | 53 | 321 | 3.5 | 7.0 | 0.00 | 0.10 | 0.01 | 80 | 1011.8 |
| 20260507080801 | 53 | 334 | 3.5 | 6.1 | 0.00 | 0.11 | 0.01 | 82 | 1011.7 |
| 20260507080301 | 52 | 271 | 3.5 | 6.1 | 0.00 | 0.12 | 0.01 | 81 | 1011.6 |
| 20260507075801 | 52 | 254 | 2.6 | 4.3 | 0.00 | 0.12 | 0.01 | 82 | 1011.6 |
| 20260507074304 | 51 | 239 | 2.6 | 4.3 | 0.00 | 0.12 | 0.01 | 84 | 1011.3 |
| 20260507073302 | 51 | 288 | 2.6 | 4.3 | 0.00 | 0.12 | 0.01 | 86 | 1011.2 |
| 20260507072306 | 50 | 323 | 1.7 | 3.5 | 0.00 | 0.12 | 0.01 | 87 | 1011.1 |
| 20260507071801 | 50 | 302 | 1.7 | 3.5 | 0.00 | 0.12 | 0.01 | 87 | 1011.0 |
| 20260507071302 | 50 | 314 | 1.7 | 3.5 | 0.00 | 0.12 | 0.01 | 87 | 1011.0 |
| 20260507070800 | 50 | 280 | 0.9 | 3.5 | 0.00 | 0.12 | 0.01 | 88 | 1011.0 |
| 20260507070302 | 50 | 297 | 1.7 | 2.6 | 0.00 | 0.12 | 0.01 | 88 | 1010.9 |
| 20260507065800 | 50 | 350 | 0.9 | 2.6 | 0.00 | 0.12 | 0.01 | 88 | 1010.9 |
| 20260507065305 | 49 | 323 | 0.9 | 2.6 | 0.00 | 0.12 | 0.01 | 88 | 1010.9 |
| 20260507064304 | 49 | 308 | 0.9 | 2.6 | 0.00 | 0.12 | 0.01 | 90 | 1010.7 |
| 20260507063802 | 49 | 274 | 0.9 | 1.7 | 0.00 | 0.12 | 0.01 | 91 | 1010.7 |
| 20260507063302 | 49 | 253 | 0.9 | 1.7 | 0.00 | 0.12 | 0.01 | 91 | 1010.6 |
| 20260507062801 | 49 | 253 | 0.9 | 1.7 | 0.00 | 0.12 | 0.01 | 91 | 1010.6 |
| 20260507062306 | 48 | 253 | 1.7 | 2.6 | 0.00 | 0.12 | 0.01 | 91 | 1010.4 |
| 20260507061803 | 48 | 253 | 1.7 | 2.6 | 0.00 | 0.12 | 0.01 | 91 | 1010.4 |
| 20260507061302 | 48 | 236 | 1.7 | 2.6 | 0.00 | 0.12 | 0.01 | 91 | 1010.3 |
| 20260507060302 | 48 | 225 | 0.9 | 2.6 | 0.00 | 0.12 | 0.01 | 91 | 1010.3 |
| 20260507055802 | 48 | 225 | 0.9 | 1.7 | 0.00 | 0.12 | 0.01 | 91 | 1010.2 |
| 20260507054801 | 48 | 225 | 1.7 | 2.6 | 0.00 | 0.12 | 0.01 | 91 | 1010.2 |
| 20260507054302 | 48 | 241 | 0.9 | 2.6 | 0.00 | 0.12 | 0.01 | 91 | 1010.2 |
| 20260507053800 | 48 | 205 | 0.9 | 1.7 | 0.00 | 0.12 | 0.01 | 91 | 1010.2 |
| 20260507053300 | 48 | 201 | 0.9 | 1.7 | 0.00 | 0.12 | 0.01 | 91 | 1010.1 |
| 20260507052802 | 48 | 201 | 0.9 | 1.7 | 0.00 | 0.12 | 0.01 | 91 | 1010.1 |
| 20260507052306 | 48 | 239 | 0.9 | 1.7 | 0.00 | 0.12 | 0.01 | 91 | 1010.0 |
| 20260507051802 | 48 | 303 | 0.9 | 1.7 | 0.00 | 0.12 | 0.01 | 92 | 1010.0 |
| 20260507050302 | 47 | 252 | 0.9 | 1.7 | 0.00 | 0.12 | 0.01 | 91 | 1009.8 |
| 20260507045301 | 47 | 268 | 1.7 | 2.6 | 0.00 | 0.12 | 0.01 | 91 | 1009.7 |
| 20260507044303 | 47 | 295 | 1.7 | 2.6 | 0.00 | 0.12 | 0.01 | 91 | 1009.4 |
| 20260507043816 | 47 | 303 | 1.7 | 3.5 | 0.00 | 0.12 | 0.01 | 91 | 1009.4 |
| 20260507043316 | 47 | 268 | 1.7 | 4.3 | 0.00 | 0.12 | 0.01 | 91 | 1009.4 |
| 20260507042817 | 47 | 182 | 0.9 | 4.3 | 0.00 | 0.12 | 0.01 | 91 | 1009.2 |
| 20260507041801 | 47 | 179 | 2.6 | 7.0 | 0.00 | 0.12 | 0.01 | 91 | 1009.1 |
| 20260507041301 | 47 | 128 | 1.7 | 6.1 | 0.00 | 0.12 | 0.01 | 91 | 1009.1 |
| 20260507040801 | 47 | 157 | 1.7 | 4.3 | 0.00 | 0.12 | 0.01 | 91 | 1009.1 |
| 20260507040303 | 47 | 163 | 2.6 | 5.2 | 0.00 | 0.12 | 0.01 | 91 | 1009.2 |
| 20260507035306 | 47 | 176 | 4.3 | 7.0 | 0.00 | 0.12 | 0.01 | 91 | 1009.2 |
| 20260507034304 | 47 | 176 | 2.6 | 6.1 | 0.00 | 0.12 | 0.01 | 91 | 1009.1 |
| 20260507033303 | 47 | 164 | 1.7 | 4.3 | 0.00 | 0.12 | 0.01 | 91 | 1009.1 |
| 20260507032802 | 47 | 207 | 1.7 | 4.3 | 0.00 | 0.12 | 0.01 | 91 | 1009.1 |
| 20260507032315 | 47 | 151 | 2.6 | 4.3 | 0.00 | 0.12 | 0.01 | 91 | 1009.2 |
| 20260507031801 | 47 | 159 | 3.5 | 5.2 | 0.00 | 0.12 | 0.01 | 91 | 1009.1 |
| 20260507030800 | 47 | 164 | 1.7 | 5.2 | 0.00 | 0.12 | 0.01 | 92 | 1009.1 |
| 20260507030301 | 47 | 226 | 1.7 | 3.5 | 0.00 | 0.12 | 0.01 | 92 | 1009.1 |
| 20260507025801 | 47 | 245 | 2.6 | 3.5 | 0.00 | 0.12 | 0.01 | 92 | 1009.1 |
| 20260507025306 | 47 | 234 | 2.6 | 6.1 | 0.00 | 0.12 | 0.01 | 92 | 1009.1 |
| 20260507024801 | 47 | 253 | 3.5 | 7.0 | 0.00 | 0.12 | 0.01 | 92 | 1009.1 |
| 20260507024316 | 47 | 130 | 4.3 | 7.0 | 0.00 | 0.12 | 0.01 | 92 | 1008.9 |
| 20260507022815 | 47 | 116 | 0.9 | 4.3 | 0.00 | 0.12 | 0.01 | 92 | 1008.9 |
| 20260507022306 | 47 | 222 | 0.9 | 1.7 | 0.00 | 0.12 | 0.01 | 92 | 1009.0 |
| 20260507021802 | 47 | 222 | 1.7 | 2.6 | 0.00 | 0.12 | 0.01 | 92 | 1009.0 |
| 20260507021302 | 47 | 222 | 1.7 | 2.6 | 0.00 | 0.12 | 0.01 | 92 | 1009.1 |
| 20260507020802 | 47 | 222 | 1.7 | 2.6 | 0.01 | 0.12 | 0.01 | 92 | 1009.1 |
| 20260507020306 | 47 | 232 | 1.7 | 2.6 | 0.01 | 0.12 | 0.01 | 92 | 1009.1 |
| 20260507015759 | 48 | 241 | 1.7 | 3.5 | 0.01 | 0.12 | 0.00 | 92 | 1009.0 |
| 20260507015253 | 48 | 248 | 1.7 | 3.5 | 0.01 | 0.12 | 0.00 | 92 | 1009.0 |
| 20260507013737 | 48 | 141 | 6.1 | 7.8 | 0.01 | 0.12 | 0.00 | 92 | 1008.6 |
| 20260507011732 | 47 | 80 | 2.6 | 7.0 | 0.01 | 0.12 | 0.00 | 92 | 1008.5 |
| 20260507011232 | 47 | 81 | 0.9 | 3.5 | 0.01 | 0.12 | 0.00 | 92 | 1008.6 |
| 20260507010730 | 47 | 292 | 0.9 | 1.7 | 0.00 | 0.11 | 0.00 | 92 | 1008.9 |
| 20260507010230 | 47 | 292 | 0.9 | 1.7 | 0.00 | 0.11 | 0.00 | 92 | 1008.9 |
| 20260507005730 | 48 | 292 | 0.9 | 1.7 | 0.00 | 0.11 | 0.00 | 92 | 1008.9 |
| 20260507004732 | 47 | 305 | 1.7 | 2.6 | 0.00 | 0.11 | 0.00 | 92 | 1008.9 |
| 20260507004230 | 47 | 305 | 1.7 | 3.5 | 0.00 | 0.11 | 0.00 | 92 | 1008.8 |
| 20260507003732 | 47 | 330 | 1.7 | 3.5 | 0.00 | 0.11 | 0.00 | 92 | 1008.8 |
| 20260507003230 | 47 | 324 | 1.7 | 3.5 | 0.00 | 0.11 | 0.00 | 92 | 1008.7 |
| 20260507002717 | 47 | 336 | 1.7 | 2.6 | 0.00 | 0.11 | 0.00 | 92 | 1008.6 |
| 20260507002218 | 47 | 323 | 1.7 | 2.6 | 0.00 | 0.11 | 0.00 | 92 | 1008.6 |
| 20260507001704 | 47 | 272 | 2.6 | 3.5 | 0.00 | 0.11 | 0.00 | 92 | 1008.5 |
| 20260507000702 | 47 | 242 | 2.6 | 4.3 | 0.00 | 0.11 | 0.00 | 92 | 1008.5 |
| 20260507000201 | 47 | 213 | 2.6 | 4.3 | 0.00 | 0.11 | 0.00 | 92 | 1008.5 |
| 20260506235700 | 47 | 220 | 2.6 | 3.5 | 0.00 | 0.11 | 0.00 | 92 | 1008.5 |
| 20260506235202 | 47 | 204 | 0.9 | 3.5 | 0.00 | 0.11 | 0.00 | 91 | 1008.5 |
| 20260506234657 | 47 | 188 | 0.9 | 2.6 | 0.00 | 0.11 | 0.00 | 91 | 1008.5 |
| 20260506234149 | 47 | 265 | 0.9 | 2.6 | 0.00 | 0.11 | 0.00 | 91 | 1008.5 |
| 20260506233649 | 48 | 271 | 1.7 | 3.5 | 0.00 | 0.11 | 0.00 | 91 | 1008.7 |
| 20260506233144 | 48 | 274 | 1.7 | 3.5 | 0.00 | 0.11 | 0.00 | 91 | 1008.8 |
| 20260506232644 | 48 | 284 | 2.6 | 4.3 | 0.00 | 0.11 | 0.00 | 90 | 1008.8 |
| 20260506232142 | 48 | 281 | 2.6 | 6.1 | 0.00 | 0.11 | 0.00 | 90 | 1008.8 |
| 20260506231637 | 48 | 255 | 3.5 | 6.1 | 0.00 | 0.11 | 0.00 | 89 | 1008.9 |
| 20260506231135 | 48 | 220 | 2.6 | 4.3 | 0.00 | 0.11 | 0.00 | 89 | 1008.7 |
| 20260506230647 | 48 | 276 | 2.6 | 4.3 | 0.00 | 0.11 | 0.00 | 89 | 1008.8 |
| 20260506230129 | 48 | 222 | 3.5 | 6.1 | 0.00 | 0.11 | 0.00 | 89 | 1008.8 |
| 20260506225645 | 48 | 57 | 3.5 | 6.1 | 0.00 | 0.12 | 0.00 | 90 | 1008.5 |
| 20260506225129 | 48 | 52 | 1.7 | 4.3 | 0.00 | 0.12 | 0.00 | 90 | 1008.6 |
| 20260506224631 | 48 | 275 | 0.9 | 1.7 | 0.00 | 0.12 | 0.00 | 89 | 1008.7 |
| 20260506224129 | 48 | 275 | 0.9 | 1.7 | 0.00 | 0.13 | 0.00 | 89 | 1008.7 |
| 20260506223629 | 48 | 275 | 0.9 | 2.6 | 0.00 | 0.13 | 0.00 | 89 | 1008.7 |
| 20260506223128 | 48 | 275 | 1.7 | 3.5 | 0.00 | 0.13 | 0.00 | 89 | 1008.7 |
| 20260506222130 | 48 | 224 | 2.6 | 3.5 | 0.00 | 0.15 | 0.00 | 88 | 1008.6 |
| 20260506221630 | 48 | 220 | 1.7 | 3.5 | 0.00 | 0.16 | 0.00 | 88 | 1008.6 |
| 20260506221130 | 48 | 178 | 0.9 | 2.6 | 0.00 | 0.16 | 0.00 | 88 | 1008.5 |
| 20260506220743 | 48 | 177 | 1.7 | 2.6 | 0.00 | 0.16 | 0.00 | 88 | 1008.4 |
| 20260506215629 | 48 | 187 | 0.9 | 3.5 | 0.00 | 0.16 | 0.16 | 88 | 1008.5 |
| 20260506215131 | 49 | 187 | 1.7 | 3.5 | 0.00 | 0.16 | 0.16 | 88 | 1008.5 |
| 20260506213132 | 49 | 166 | 1.7 | 3.5 | 0.00 | 0.17 | 0.16 | 88 | 1008.3 |
| 20260506212604 | 49 | 172 | 1.7 | 3.5 | 0.00 | 0.17 | 0.16 | 87 | 1008.3 |
| 20260506211603 | 50 | 223 | 4.3 | 12.2 | 0.00 | 0.19 | 0.16 | 87 | 1008.4 |
| 20260506211101 | 50 | 254 | 6.1 | 12.2 | 0.00 | 0.19 | 0.16 | 88 | 1008.4 |
| 20260506210602 | 50 | 109 | 7.8 | 11.3 | 0.00 | 0.20 | 0.16 | 88 | 1008.4 |